Kalamazoo, MI

9:48 PM EST on December 03, 2016 (GMT -0500)
Kalamazoo-Battle Creek International

Weather History for KAZO - January, 2015

Change the Weather History Date:

Monday, January 19, 2015

  Actual Average Record
Temperature  
Mean Temperature 32 °F 24 °F  
Max Temperature 38 °F 31 °F 55 °F (1973)
Min Temperature 25 °F 18 °F -11 °F (1997)
Degree Days  
Heating Degree Days 33 41  
Month to date heating degree days 866 771  
Since 1 July heating degree days 3381 3222  
Cooling Degree Days 0 0  
Month to date cooling degree days 0 0  
Year to date cooling degree days 0 0  
Moisture  
Dew Point 27 °F    
Average Humidity 76    
Maximum Humidity 92    
Minimum Humidity 59    
Precipitation  
Precipitation 0.00 in 0.06 in 1.11 in (1949)
Month to date precipitation 0.86 1.08  
Year to date precipitation 0.86 1.08  
Sea Level Pressure  
Sea Level Pressure 29.99 in    
Wind  
Wind Speed 4 mph (WNW)    
Max Wind Speed 9 mph    
Max Gust Speed 12 mph    
Visibility 9 miles    
Events      
T = Trace of Precipitation, MM = Missing Value Source: NWS Daily Summary

Daily Weather History Graph

Daily Weather History Graph

Search for Another Location

Airport or City:

Trip Planner

Search our weather history database for the weather conditions in past years. The results will help you decide how hot, cold, wet, or windy it might be!

Date:

Astronomy

Jan. 19, 2015 Rise Set
Actual Time 8:06 AM EST 5:39 PM EST
Civil Twilight 7:35 AM EST 6:10 PM EST
Nautical Twilight 7:01 AM EST 6:44 PM EST
Astronomical Twilight 6:27 AM EST 7:18 PM EST
Moon 6:57 AM EST (1/19) 5:07 PM EST (1/19)
Length of Visible Light 10h 34m
Length of Day
9h 33m
Waning Crescent, 1% of the Moon is Illuminated
Jan 19
Waning Crescent
Jan 20
New
Jan 26
First Quarter
Feb 3
Full
Feb 11
Last Quarter

Hourly Weather History & Observations

Time (EST) Temp. Windchill Dew Point Humidity Pressure Visibility Wind Dir Wind Speed Gust Speed Precip Events Conditions
12:53 AM 35.1 °F 30.1 °F 28.9 °F 78% 29.97 in 10.0 mi WSW 5.8 mph - N/A   Overcast
1:53 AM 35.1 °F 29.3 °F 30.0 °F 82% 29.97 in 10.0 mi WSW 6.9 mph - N/A   Overcast
2:53 AM 35.1 °F 30.1 °F 30.0 °F 82% 29.98 in 10.0 mi West 5.8 mph - N/A   Overcast
3:53 AM 35.1 °F 29.3 °F 30.0 °F 82% 29.98 in 10.0 mi West 6.9 mph - N/A   Overcast
4:53 AM 33.1 °F 28.7 °F 30.0 °F 89% 29.98 in 8.0 mi WSW 4.6 mph - N/A   Overcast
5:53 AM 30.9 °F 26.2 °F 28.0 °F 89% 29.99 in 6.0 mi West 4.6 mph - N/A   Scattered Clouds
6:53 AM 30.0 °F - 27.0 °F 88% 30.01 in 6.0 mi Calm Calm - N/A   Clear
7:18 AM 26.1 °F 21.9 °F 25.0 °F 96% 29.98 in 6.0 mi SSW 3.5 mph - N/A   Clear
7:53 AM 27.0 °F 21.6 °F 25.0 °F 92% 30.02 in 6.0 mi WSW 4.6 mph - N/A   Clear
8:53 AM 27.0 °F 20.5 °F 25.0 °F 92% 30.04 in 4.0 mi West 5.8 mph - N/A   Partly Cloudy
9:53 AM 32.0 °F - 30.9 °F 96% 30.03 in 10.0 mi Calm Calm - N/A   Clear
10:53 AM 33.1 °F - 28.9 °F 85% 30.04 in 10.0 mi Calm Calm - N/A   Scattered Clouds
11:53 AM 37.0 °F - 27.0 °F 67% 30.03 in 10.0 mi Calm Calm - N/A   Overcast
12:53 PM 37.0 °F 33.3 °F 25.0 °F 62% 30.00 in 10.0 mi NNW 4.6 mph - N/A   Overcast
1:53 PM 37.0 °F 31.0 °F 26.1 °F 65% 29.99 in 10.0 mi North 8.1 mph - N/A   Overcast
2:53 PM 36.0 °F 31.1 °F 26.1 °F 67% 29.98 in 10.0 mi WNW 5.8 mph - N/A   Overcast
3:53 PM 36.0 °F 31.1 °F 26.1 °F 67% 29.97 in 10.0 mi North 5.8 mph - N/A   Overcast
4:53 PM 35.1 °F 31.0 °F 26.1 °F 70% 29.98 in 10.0 mi North 4.6 mph - N/A   Overcast
5:53 PM 35.6 °F 32.8 °F 24.8 °F 65% 29.95 in 10.0 mi NNE 3.5 mph - N/A   Overcast
6:53 PM 34.0 °F 31.0 °F 25.0 °F 70% 30.00 in 10.0 mi NE 3.5 mph - N/A   Overcast
7:53 PM 33.8 °F - 24.8 °F 70% 29.96 in 10.0 mi Calm Calm - N/A   Overcast
8:53 PM 33.1 °F 27.7 °F 24.1 °F 70% 29.98 in 10.0 mi ENE 5.8 mph - N/A   Overcast
9:53 PM 32.0 °F 27.5 °F 25.0 °F 75% 29.98 in 10.0 mi East 4.6 mph - N/A   Overcast
10:53 PM 32.0 °F 28.7 °F 25.0 °F 75% 29.97 in 10.0 mi SE 3.5 mph - N/A   Overcast
11:53 PM 32.0 °F 27.5 °F 25.0 °F 75% 29.96 in 10.0 mi SE 4.6 mph - N/A   Overcast